This is the latest recevied weather packets stored in our database for station/object JA3VQW-13. If no packets are shown the sender has not sent any weather packets the latest 10 day(s).
| Time | Temp. | Humidity | Pressure | Rain* | Wind** | Luminosity | Snow |
|---|---|---|---|---|---|---|---|
| 1777365691 | 25° C | 27% | 1001 hPa | 0 mm | - | - | - |
| 1777365377 | 25° C | 27% | 1001 hPa | 0 mm | - | - | - |
| 1777364790 | 24.44° C | 28% | 1001 hPa | 0 mm | - | - | - |
| 1777363890 | 25° C | 28% | 1001 hPa | 0 mm | - | - | - |
| 1777363577 | 25° C | 27% | 1001 hPa | 0 mm | - | - | - |
| 1777362991 | 25.56° C | 27% | 1001 hPa | 0 mm | - | - | - |
| 1777362092 | 25.56° C | 27% | 1001 hPa | 0 mm | - | - | - |
| 1777361776 | 25.56° C | 26% | 1001 hPa | 0 mm | - | - | - |
| 1777361191 | 26.11° C | 26% | 1001 hPa | 0 mm | - | - | - |
| 1777360291 | 26.11° C | 26% | 1001 hPa | 0 mm | - | - | - |
| 1777359976 | 26.67° C | 24% | 1001 hPa | 0 mm | - | - | - |
| 1777359391 | 26.11° C | 25% | 1001 hPa | 0 mm | - | - | - |
| 1777358176 | 26.11° C | 27% | 1001 hPa | 0 mm | - | - | - |
| 1777357590 | 25.56° C | 26% | 1001 hPa | 0 mm | - | - | - |
| 1777356690 | 26.67° C | 23% | 1001 hPa | 0 mm | - | - | - |
| 1777356377 | 26.67° C | 23% | 1001 hPa | 0 mm | - | - | - |
| 1777355790 | 26.67° C | 23% | 1001 hPa | 0 mm | - | - | - |
| 1777354890 | 26.67° C | 23% | 1001 hPa | 0 mm | - | - | - |
| 1777354577 | 26.11° C | 23% | 1001 hPa | 0 mm | - | - | - |
| 1777353090 | 26.11° C | 23% | 1001 hPa | 0 mm | - | - | - |
| 1777352777 | 26.67° C | 23% | 1001 hPa | 0 mm | - | - | - |
| 1777352190 | 26.67° C | 23% | 1001 hPa | 0 mm | - | - | - |
| 1777351290 | 26.67° C | 25% | 1001 hPa | 0 mm | - | - | - |
| 1777350976 | 26.67° C | 25% | 1001 hPa | 0 mm | - | - | - |
| 1777350390 | 26.11° C | 25% | 1001 hPa | 0 mm | - | - | - |
* Rain latest hour (hover to see other rain measurements)
** Current wind speed in m/s (hover to see current wind gust speed)